Location: *
(43.4667°N, 11.6833°E)
Time: 22:15:45
(UTC+00:00)

CZ-4B R/B - Pass Details

Date: 19 July 2019
Orbit: 702 x 803 km, 98.8° (Epoch: 20 August)

Event Time Altitude Azimuth Distance (km) Brightness Sun altitude
Rises 23:35:48 0° 20° (NNE) 3,223 7.9 -25.7°
Reaches altitude 10° 23:38:15 10° 27° (NNE) 2,277 6.8 -25.6°
Maximum altitude 23:42:59 43° 99° (E) 1,035 4.1 -25.6°
Enters shadow 23:43:05 42° 102° (ESE) 1,035 4.0 -25.6°
